Погода в Нандеде

Индия     19°09′44″N   77°18′38″E
темп.,
°C
ветер,
м/с
пор.,
м/с
влажн.,
%
обл.,
%
осадки,
мм/ч
давл.,
гПа
погр.,
м
19 мая, ср
ср1923:30+30зюз71150100 0.1 1005711
02:30+29зюз486485 2.6 1004936
05:30+28ююз4863100 2.6 10051073
08:30+30ююз6857100 0.0 10061245
11:30+33юз794294 0.0 10052089
14:30+35зюз7936100 0.4 10022477
17:30+34зюз793876 0.9 10022198
20:30+32зюз5746100 0.3 10041059
20 мая, чт
чт2023:30+30зюз695286 0.4 1005680
02:30+29зюз595793 0.0 1004629
05:30+28зюз4759100 0.0 1005778
08:30+29зюз565550 0.0 10081007
11:30+34з463317 0.0 10061993
14:30+37з462164 0.0 10032747
17:30+38сз56185 0.0 10023265
20:30+35сз372313 0.0 1003232
21 мая, пт
пт2123:30+33ссз362744 0.0 1004128
02:30+31с3931100 0.0 1003233
05:30+30ююв00367 0.0 100511
08:30+33с45305 0.0 10081074
11:30+37ссв442376 0.0 10062835
14:30+37ссз542397 0.0 10032544
17:30+37с342399 0.0 10022158
20:30+35зсз3530100 0.0 1004215
22 мая, сб
сб2223:30+33зсз5833100 0.0 1004261
02:30+31зсз81244100 0.0 1003514
05:30+30сз4104569 0.0 1005723
08:30+34сз783332 0.0 10061345
11:30+38с332349 0.0 10042721
14:30+39св332097 0.0 10013407
17:30+37сз882799 0.0 10011500
20:30+34зсз783559 0.0 10031055
23 мая, вс
вс2323:30+30сз611456 0.0 1004637
02:30+30зсз484697 0.0 1004658
05:30+28з595252 0.0 1005433
08:30+32сз684151 0.0 1007969
11:30+37ссз762731 0.0 10052106
14:30+39с6323100 0.0 10023778
17:30+37ссз672585 0.0 10022812
20:30+34ссз710335 0.0 1004613